[[{"header":{"parameterUnit":"m.s-1","parameterCategory":1,"la1":30.2991,"la2":30.254,"lo1":-89.0895,"lo2":-89.0444,"dy":0.0017,"dx":0.0017,"nx":28,"ny":28,"refTime":"2023-09-09T09:00:00:Z","depth":0,"parameterNumber":2,"parameterNumberName":"U-component_of_WINDS"},"data":[0,0,0,0,0,0,0,0,0,0,0,0,0,0,0,0,0,0,0,0,0,0,0,0,0,0,0,0,0,0,0,0,0,0,0,0,0,0,0,0,0,0,0,0,0,0,0,0,0,0,0,0,0,0,0,0,0,0,-0.1536,-0.1537,0,-0.1593,-0.1594,-0.1595,-0.1631,-0.1631,-0.1631,-0.1631,-0.169,-0.1691,-0.1692,0,0,0,0,0,0,0,0,0,0,0,0,0,-0.1457,-0.1458,-0.1536,-0.1537,-0.1537,-0.1593,-0.1594,-0.1595,-0.1631,-0.1631,-0.1631,-0.1631,-0.1689,-0.1691,-0.1692,0,0,0,0,0,0,0,0,0,0,0,0,0,-0.15,-0.1459,-0.1536,-0.1562,-0.1565,-0.1593,-0.1594,-0.1595,-0.1631,-0.1631,-0.1631,-0.1632,-0.1689,-0.1691,-0.1693,-0.1699,0,0,-0.1699,-0.17,0,0,0,0,0,0,0,0,-0.1498,-0.1503,-0.1558,-0.156,-0.1564,-0.1605,-0.1588,-0.163,-0.1631,-0.1606,-0.1631,-0.1632,-0.1661,-0.1666,-0.1676,-0.1702,-0.1704,-0.1699,-0.17,-0.1701,-0.1702,0,0,0,0,0,0,0,-0.1495,-0.1501,-0.1559,-0.1558,-0.1562,-0.1571,-0.1577,-0.1596,-0.1631,-0.1608,-0.1611,-0.1617,-0.1663,-0.1674,-0.1677,-0.1705,-0.1699,-0.1701,-0.1702,-0.1703,-0.174,-0.1739,0,0,0,0,0,0,-0.1488,-0.1498,-0.1557,-0.156,-0.1531,-0.1572,-0.1579,-0.1592,-0.1631,-0.1637,-0.1617,-0.1618,-0.167,-0.1675,-0.168,-0.169,-0.1701,-0.1703,-0.1704,-0.174,-0.174,-0.1739,0,0,0,0,0,0,-0.1486,-0.1493,-0.1555,-0.153,-0.1539,-0.1573,-0.1587,-0.1593,-0.1603,-0.1638,-0.1644,-0.1621,-0.167,-0.1677,-0.1694,-0.1692,-0.1704,-0.1706,-0.174,-0.174,-0.1739,-0.1711,0,0,0,0,0,0,-0.1483,-0.1492,-0.1495,-0.153,-0.154,-0.1568,-0.1586,-0.1593,-0.1607,-0.161,-0.1643,-0.1649,-0.1671,-0.1691,-0.1696,-0.1695,-0.1708,-0.174,-0.174,-0.174,-0.1712,-0.1709,-0.1707,0,0,0,0,0,-0.1481,-0.1484,-0.1495,-0.1502,-0.1544,-0.1568,-0.1574,-0.1599,-0.1606,-0.161,-0.1632,-0.1648,-0.1692,-0.1692,-0.1699,-0.1699,-0.1741,-0.174,-0.174,-0.1713,-0.171,-0.1707,0,0,0,0,0,0,-0.1448,-0.149,-0.1502,-0.1517,-0.1539,-0.1574,-0.1579,-0.1595,-0.1615,-0.1617,-0.1647,-0.1654,-0.1669,-0.1685,-0.1685,-0.1707,-0.1718,-0.1719,-0.1696,-0.1693,-0.1691,-0.1687,-0.1709,0,0,0,0,0,-0.1443,-0.1459,-0.1494,-0.1504,-0.1514,-0.1545,-0.1556,-0.1573,-0.1597,-0.1607,-0.163,-0.1652,-0.1671,-0.1683,-0.1702,-0.1714,-0.1722,-0.1717,-0.1715,-0.1712,-0.1713,-0.172,-0.1719,-0.1737,-0.1737,-0.1737,0,0,-0.1432,-0.1457,-0.1465,-0.1498,-0.1517,-0.1533,-0.1552,-0.1568,-0.158,-0.1609,-0.1627,-0.1645,-0.1672,-0.1686,-0.1694,-0.1701,-0.1709,-0.1712,-0.171,-0.1711,-0.172,-0.1718,-0.1716,-0.1737,-0.1737,-0.1737,0,0,-0.1421,-0.144,-0.1451,-0.147,-0.1498,-0.1518,-0.1521,-0.1554,-0.1567,-0.1585,-0.1607,-0.1621,-0.1653,-0.1671,-0.1685,-0.1679,-0.1695,-0.1684,-0.1672,-0.1679,-0.1678,-0.1677,-0.1675,-0.1674,-0.1684,-0.1684,-0.1684,0,-0.1404,-0.1428,-0.1455,-0.1469,-0.1483,-0.151,-0.1521,-0.1538,-0.1571,-0.158,-0.1586,-0.1626,-0.1646,-0.1666,-0.1664,-0.1674,-0.1678,-0.1681,-0.1676,-0.1675,-0.1674,-0.1673,-0.1672,-0.1683,-0.1683,-0.1683,-0.1683,0,-0.1406,-0.1423,-0.1428,-0.146,-0.1474,-0.1487,-0.1515,-0.1526,-0.1542,-0.1561,-0.1579,-0.1604,-0.1628,-0.1634,-0.165,-0.1655,-0.1659,-0.167,-0.1682,-0.167,-0.167,-0.1669,-0.1681,-0.1681,-0.1682,-0.1682,0,0,-0.1377,-0.1422,-0.1424,-0.1438,-0.1471,-0.1485,-0.1498,-0.1522,-0.1531,-0.1553,-0.1565,-0.1591,-0.1601,-0.1616,-0.1634,-0.164,-0.1634,-0.1651,-0.1652,-0.1647,-0.1642,-0.1634,-0.1633,-0.1645,-0.1645,-0.1645,-0.164,0,-0.1371,-0.1397,-0.1421,-0.1438,-0.1454,-0.1479,-0.1491,-0.1512,-0.153,-0.1546,-0.1565,-0.1583,-0.1596,-0.1605,-0.1612,-0.1633,-0.1634,-0.1634,-0.1656,-0.1657,-0.165,-0.1633,-0.1624,-0.1619,-0.164,-0.164,-0.164,0,-0.1367,-0.1388,-0.1407,-0.1438,-0.1446,-0.1456,-0.148,-0.1494,-0.1519,-0.1531,-0.1548,-0.1566,-0.1581,-0.1591,-0.1612,-0.1612,-0.1622,-0.1634,-0.1634,-0.1638,-0.1648,-0.1636,-0.1617,-0.1617,-0.164,-0.164,-0.164,0,-0.1345,-0.1377,-0.1393,-0.1404,-0.1441,-0.1447,-0.1463,-0.1487,-0.15,-0.1521,-0.1529,-0.1551,-0.1563,-0.1579,-0.1603,-0.1608,-0.1621,-0.1633,-0.1632,-0.1632,-0.1635,-0.1635,-0.1618,-0.164,-0.164,-0.164,-0.164,0,-0.1336,-0.1346,-0.1383,-0.1392,-0.1405,-0.1432,-0.1443,-0.1461,-0.1483,-0.1496,-0.1518,-0.153,-0.1561,-0.1576,-0.1594,-0.1609,-0.1614,-0.1625,-0.163,-0.1623,-0.1622,-0.1631,-0.1632,-0.164,-0.164,-0.164,-0.164,0,-0.1313,-0.1338,-0.1356,-0.1389,-0.1398,-0.1406,-0.1434,-0.1444,-0.1463,-0.1479,-0.1484,-0.1514,-0.1533,-0.1558,-0.1585,-0.1597,-0.161,-0.1617,-0.1602,-0.1605,-0.1603,-0.1603,-0.1592,-0.1592,-0.1614,-0.1614,-0.1613,0,-0.1306,-0.1315,-0.1348,-0.1359,-0.1374,-0.1391,-0.1404,-0.143,-0.1443,-0.1471,-0.1477,-0.1498,-0.1516,-0.1546,-0.1569,-0.159,-0.1598,-0.1593,-0.1602,-0.1595,-0.1599,-0.1598,-0.1599,-0.1591,-0.1591,-0.1591,-0.159,0,-0.1291,-0.1303,-0.1321,-0.1343,-0.1358,-0.1377,-0.1396,-0.1404,-0.1434,-0.1447,-0.1467,-0.1481,-0.1508,-0.1529,-0.1552,-0.1568,-0.1584,-0.1587,-0.1588,-0.1582,-0.1573,-0.1578,-0.1597,-0.1588,-0.1588,-0.1588,-0.1588,-0.1588,-0.1277,-0.1286,-0.1311,-0.133,-0.1347,-0.1365,-0.1376,-0.1396,-0.1413,-0.1438,-0.1452,-0.1471,-0.1495,-0.1528,-0.1543,-0.1558,-0.1565,-0.1566,-0.1566,-0.1567,-0.1565,-0.157,-0.1563,-0.1563,-0.1563,-0.1563,-0.1563,0,-0.1263,-0.1281,-0.1298,-0.1325,-0.134,-0.1353,-0.1376,-0.1387,-0.1404,-0.1425,-0.1442,-0.1465,-0.1484,-0.1509,-0.153,-0.1538,-0.1546,-0.1543,-0.1543,-0.1546,-0.1558,-0.1555,-0.1536,-0.1536,-0.1536,-0.1536,-0.1536,-0.1536,-0.1258,-0.1274,-0.1289,-0.1313,-0.1331,-0.135,-0.1361,-0.1378,-0.1394,-0.1419,-0.1435,-0.1451,-0.1473,-0.1496,-0.1515,-0.1522,-0.1528,-0.1523,-0.1532,-0.1543,-0.1545,-0.1548,-0.1545,-0.1524,-0.1524,-0.1519,-0.1519,-0.1519]},{"header":{"parameterUnit":"m.s-1","parameterCategory":1,"la1":30.2991,"la2":30.254,"lo1":-89.0895,"lo2":-89.0444,"dy":0.0017,"dx":0.0017,"nx":28,"ny":28,"refTime":"2023-09-09T09:00:00:Z","depth":0,"parameterNumber":3,"parameterNumberName":"V-component_of_WINDS"},"data":[0,0,0,0,0,0,0,0,0,0,0,0,0,0,0,0,0,0,0,0,0,0,0,0,0,0,0,0,0,0,0,0,0,0,0,0,0,0,0,0,0,0,0,0,0,0,0,0,0,0,0,0,0,0,0,0,0,0,0.0269,0.0269,0,0.0243,0.0243,0.0243,0.0162,0.016,0.0159,0.0157,0.0133,0.0134,0.0135,0,0,0,0,0,0,0,0,0,0,0,0,0,0.0251,0.0252,0.0269,0.0269,0.0268,0.0243,0.0243,0.0243,0.0162,0.016,0.0158,0.0156,0.0132,0.0133,0.0135,0,0,0,0,0,0,0,0,0,0,0,0,0,0.0246,0.0252,0.0269,0.0225,0.0221,0.0243,0.0243,0.0243,0.0163,0.016,0.0158,0.0155,0.0132,0.0133,0.0135,0.0198,0,0,0.014,0.014,0,0,0,0,0,0,0,0,0.0246,0.0246,0.0232,0.0228,0.0224,0.0203,0.0228,0.0228,0.0164,0.0185,0.0157,0.0154,0.0158,0.0158,0.0159,0.0197,0.0196,0.014,0.0141,0.0141,0.0142,0,0,0,0,0,0,0,0.0246,0.0247,0.0259,0.0232,0.0227,0.0208,0.0204,0.0227,0.0187,0.0183,0.0177,0.0175,0.0156,0.0157,0.0158,0.0195,0.014,0.0141,0.0142,0.0143,0.0285,0.0288,0,0,0,0,0,0,0.0253,0.0248,0.026,0.0258,0.0228,0.021,0.0206,0.0213,0.0187,0.018,0.0177,0.0171,0.0156,0.0156,0.0156,0.0229,0.0141,0.0143,0.0144,0.0282,0.0286,0.0289,0,0,0,0,0,0,0.0253,0.0255,0.0261,0.0251,0.0251,0.0213,0.0221,0.0213,0.0215,0.0182,0.0175,0.0187,0.0154,0.0154,0.0188,0.0227,0.0143,0.0145,0.0279,0.0283,0.0287,0.0376,0,0,0,0,0,0,0.0252,0.0255,0.0278,0.0252,0.0251,0.0293,0.0224,0.0215,0.0218,0.021,0.0189,0.0183,0.0152,0.0187,0.019,0.0228,0.0146,0.0275,0.0281,0.0286,0.0369,0.0383,0.0394,0,0,0,0,0,0.0252,0.0304,0.028,0.0282,0.028,0.0295,0.0295,0.0257,0.0221,0.0245,0.0224,0.0184,0.0222,0.0191,0.0194,0.0233,0.0273,0.0279,0.0286,0.0364,0.038,0.0394,0,0,0,0,0,0,0.0336,0.03,0.0273,0.0318,0.031,0.0282,0.031,0.0276,0.0279,0.0271,0.0225,0.0221,0.0262,0.025,0.0216,0.0293,0.0241,0.0248,0.0299,0.0315,0.0327,0.0329,0.0147,0,0,0,0,0,0.036,0.0375,0.0343,0.0386,0.0384,0.0348,0.0353,0.0325,0.0315,0.0312,0.0293,0.0286,0.0297,0.0305,0.0313,0.0367,0.0362,0.0395,0.0408,0.0418,0.0426,0.0455,0.0469,0.031,0.031,0.031,0,0,0.041,0.0392,0.0404,0.0403,0.0393,0.0411,0.0346,0.0367,0.038,0.0315,0.0347,0.0333,0.0322,0.0367,0.0385,0.0359,0.0468,0.0426,0.0435,0.0437,0.0463,0.0478,0.0491,0.0315,0.0314,0.0313,0,0,0.0509,0.0496,0.0531,0.0523,0.051,0.0486,0.0494,0.0471,0.0459,0.0489,0.0442,0.0457,0.0476,0.047,0.047,0.0567,0.0531,0.0571,0.0636,0.0665,0.0678,0.0689,0.0725,0.0738,0.0578,0.0579,0.0579,0,0.0572,0.0596,0.0554,0.0578,0.058,0.0521,0.0557,0.0552,0.0542,0.0545,0.0514,0.0537,0.0525,0.0569,0.0593,0.0594,0.0603,0.0574,0.0679,0.069,0.0699,0.0733,0.0747,0.0584,0.0583,0.0582,0.0582,0,0.0676,0.0693,0.0723,0.0715,0.0719,0.0749,0.0712,0.0722,0.0693,0.0672,0.0705,0.0689,0.0693,0.0701,0.0673,0.074,0.0724,0.0687,0.0634,0.072,0.0751,0.0764,0.0591,0.0589,0.0587,0.0586,0,0,0.0828,0.0796,0.0808,0.0803,0.0784,0.0797,0.0825,0.0828,0.0838,0.0833,0.0856,0.0873,0.0839,0.0839,0.081,0.0835,0.0915,0.0795,0.0794,0.0819,0.099,0.1019,0.1034,0.0891,0.0893,0.0895,0.0991,0,0.0923,0.0968,0.0931,0.0983,0.0999,0.0944,0.0968,0.096,0.0941,0.0953,0.0932,0.0946,0.0899,0.0899,0.0921,0.0901,0.0949,0.0893,0.0913,0.0914,0.0918,0.105,0.1081,0.1173,0.1003,0.1005,0.1006,0,0.104,0.104,0.1094,0.1072,0.1077,0.11,0.11,0.1112,0.1101,0.1086,0.1086,0.105,0.1077,0.1024,0.106,0.1023,0.1029,0.102,0.1023,0.1024,0.0966,0.1057,0.1201,0.1215,0.1025,0.1023,0.1022,0,0.1147,0.1161,0.1195,0.1193,0.1168,0.1185,0.1176,0.1162,0.1167,0.1168,0.117,0.1174,0.1177,0.1181,0.1148,0.1112,0.1189,0.1133,0.1178,0.118,0.1198,0.1198,0.1347,0.12,0.12,0.12,0.1199,0,0.1258,0.1294,0.1243,0.1264,0.1303,0.126,0.1299,0.1284,0.1273,0.1291,0.1243,0.1261,0.1216,0.1229,0.1204,0.1239,0.124,0.1229,0.1222,0.1234,0.1236,0.1238,0.1231,0.1203,0.1202,0.1202,0.1201,0,0.1385,0.1352,0.1386,0.1359,0.1354,0.1383,0.1361,0.138,0.1358,0.1381,0.1384,0.135,0.1364,0.1331,0.134,0.1322,0.1373,0.1355,0.1377,0.1372,0.1419,0.1416,0.1576,0.1596,0.1435,0.1437,0.1438,0,0.1458,0.1484,0.146,0.1469,0.1462,0.1476,0.148,0.1439,0.1446,0.1436,0.1457,0.1466,0.1471,0.1496,0.1473,0.1479,0.1462,0.1518,0.1463,0.1474,0.1464,0.1464,0.1467,0.153,0.1532,0.1533,0.1534,0,0.1593,0.1575,0.1583,0.1586,0.1592,0.1592,0.1589,0.1599,0.1555,0.1565,0.1578,0.1582,0.1591,0.1602,0.1603,0.1594,0.1558,0.1552,0.1563,0.1576,0.1588,0.1583,0.1409,0.1549,0.1547,0.1546,0.1545,0.1545,0.1696,0.1716,0.1703,0.1714,0.1707,0.1705,0.1722,0.1702,0.1712,0.1716,0.1691,0.171,0.1699,0.1697,0.1692,0.1706,0.1681,0.1697,0.1701,0.1706,0.1715,0.1585,0.1706,0.1706,0.1706,0.1705,0.1705,0,0.1828,0.1817,0.1827,0.1824,0.1833,0.1796,0.1791,0.1801,0.1818,0.1811,0.1817,0.1833,0.1843,0.182,0.1827,0.1843,0.1827,0.1847,0.1846,0.1844,0.1736,0.1726,0.186,0.186,0.186,0.186,0.186,0.186,0.1899,0.1932,0.1914,0.1944,0.1932,0.195,0.195,0.1949,0.1943,0.1962,0.197,0.1955,0.1942,0.1947,0.1955,0.1948,0.1954,0.198,0.1967,0.1867,0.1852,0.1837,0.1828,0.1981,0.1981,0.2074,0.2075,0.2076]}]]